[TLELIST] Archives

 

Current TLEs

June 29th 2007 PDT

HST 1 20580U 90037B 07178.25287105 +.00000291 +00000-0 +96635-5 0 09061 2 20580 028.4678 124.4861 0003773 200.0918 159.9523 15.00254383741476 ISS (ZARYA) 1 25544U 98067A 07180.10120244 .00014479 00000-0 85302-4 0 4857 2 25544 051.6346 042.3306 0008271 013.3754 124.0930 15.78458270492658 CXO 1 25867U 99040B 07180.87500000 .00000361 00000-0 00000+0 0 851 2 25867 061.9344 089.0621 6249292 283.8075 357.9086 00.37804113 2300 ____________________________________________________________________ These 2-Line ...Continue Reading

Current TLEs

June 28th 2007 PDT

HST 1 20580U 90037B 07179.25073811 .00000321 00000-0 12054-4 0 9054 2 20580 028.4678 117.9798 0003744 209.8193 150.2185 15.00254893741623 ISS (ZARYA) 1 25544U 98067A 07179.45459622 .00014280 00000-0 84263-4 0 4819 2 25544 051.6330 045.6765 0008187 010.9676 049.7228 15.78437722492559 CXO 1 25867U 99040B 07178.20833333 .00000344 00000-0 00000+0 0 843 2 25867 061.9226 089.1078 6243395 283.8638 354.8466 00.37804061 2297 ____________________________________________________________________ These 2-Line ...Continue Reading

Current TLEs

June 27th 2007 PDT

HST 1 20580U 90037B 07176.92238080 +.00000262 +00000-0 +74146-5 0 09040 2 20580 028.4680 133.1631 0003961 189.0692 170.9834 15.00253883741275 ISS (ZARYA) 1 25544U 98067A 07178.00149319 .00015789 00000-0 92906-4 0 4726 2 25544 051.6337 053.1819 0007925 006.5501 071.6011 15.78399690492327 CXO 1 25867U 99040B 07178.20833333 .00000344 00000-0 00000+0 0 843 2 25867 061.9226 089.1078 6243395 283.8638 354.8466 00.37804061 2297 ____________________________________________________________________ These 2-Line ...Continue Reading

Current TLEs

June 26th 2007 PDT

HST 1 20580U 90037B 07175.92451366 +.00000247 +00000-0 +62934-5 0 09082 2 20580 028.4681 139.6710 0003929 179.0774 180.9834 15.00253579741126 ISS (ZARYA) 1 25544U 98067A 07176.99778003 .00016405 00000-0 96506-4 0 4669 2 25544 051.6338 058.3694 0007927 002.3792 128.6397 15.78369485492165 CXO 1 25867U 99040B 07178.20833333 .00000344 00000-0 00000+0 0 843 2 25867 061.9226 089.1078 6243395 283.8638 354.8466 00.37804061 2297 ____________________________________________________________________ These 2-Line ...Continue Reading

Current TLEs

June 25th 2007 PDT

HST 1 20580U 90037B 07174.32792504 +.00000256 +00000-0 +69853-5 0 09107 2 20580 028.4682 150.0816 0003908 162.2705 197.8022 15.00253364740886 ISS (ZARYA) 1 25544U 98067A 07176.29687698 .00016413 00000-0 96652-4 0 4628 2 25544 051.6340 061.9932 0007847 000.0086 105.7243 15.78346156492059 CXO 1 25867U 99040B 07175.58333333 .00000326 00000-0 00000+0 0 835 2 25867 061.9088 089.1435 6238595 283.9294 357.4355 00.37804530 2281 ____________________________________________________________________ These 2-Line ...Continue Reading

Current TLEs

June 24th 2007 PDT

HST 1 20580U 90037B 07175.19274390 .00000245 00000-0 60761-5 0 9029 2 20580 028.4681 144.4426 0003905 171.3280 188.7375 15.00253424741018 ISS (ZARYA) 1 25544U 98067A 07175.16638720 .00014713 00000-0 87231-4 0 4562 2 25544 051.6341 067.8362 0007933 355.3072 162.6430 15.78301196491873 CXO 1 25867U 99040B 07175.58333333 .00000326 00000-0 00000+0 0 835 2 25867 061.9088 089.1435 6238595 283.9294 357.4355 00.37804530 2281 ____________________________________________________________________ These 2-Line ...Continue Reading

Current TLEs

June 23rd 2007 PDT

HST 1 20580U 90037B 07172.39871302 +.00000304 +00000-0 +10713-4 0 09043 2 20580 028.4680 162.6613 0003870 142.4920 217.5941 15.00253223740597 ISS (ZARYA) 1 25544U 98067A 07174.33418022 .00013477 00000-0 80361-4 0 4519 2 25544 051.6347 072.1375 0007694 352.7421 113.5234 15.78270221491742 CXO 1 25867U 99040B 07175.58333333 .00000326 00000-0 00000+0 0 835 2 25867 061.9088 089.1435 6238595 283.9294 357.4355 00.37804530 2281 ____________________________________________________________________ These 2-Line ...Continue Reading

Current TLEs

June 20th 2007 PDT

HST 1 20580U 90037B 07170.40297515 .00000378 00000-0 16475-4 0 8996 2 20580 028.4677 175.6768 0003800 123.7526 236.3428 15.00252988740298 ISS (ZARYA) 1 25544U 98067A 07171.12363426 .00005766 00000-0 36804-4 0 4289 2 25544 051.6360 088.7334 0007500 341.6186 231.2152 15.78168180491237 CXO 1 25867U 99040B 07170.29166667 .00000269 00000-0 00000+0 0 816 2 25867 061.8895 089.2510 6231642 284.0436 356.9289 00.37802854 2262 ____________________________________________________________________ These 2-Line ...Continue Reading

Current TLEs

June 19th 2007 PDT

HST 1 20580U 90037B 07168.47376087 +.00000389 +00000-0 +17349-4 0 09053 2 20580 028.4679 188.2581 0003740 105.0829 255.0174 15.00252307740005 ISS (ZARYA) 1 25544U 98067A 07170.34340551 -.00059597 00000-0 -33935-3 0 4235 2 25544 051.6345 092.7666 0007959 338.9421 118.0891 15.78116416491116 CXO 1 25867U 99040B 07170.29166667 .00000269 00000-0 00000+0 0 816 2 25867 061.8895 089.2510 6231642 284.0436 356.9289 00.37802854 2262 ____________________________________________________________________ These 2-Line ...Continue Reading

Current TLEs

June 18th 2007 PDT

HST 1 20580U 90037B 07169.27205659 .00000373 00000-0 16100-4 0 8986 2 20580 028.4678 183.0526 0003727 113.6897 246.4086 15.00252511740127 ISS (ZARYA) 1 25544U 98067A 07169.39454981 .00012591 00000-0 75324-4 0 4163 2 25544 051.6368 097.6651 0008082 335.3918 127.1586 15.78270984490964 CXO 1 25867U 99040B 07170.29166667 .00000269 00000-0 00000+0 0 816 2 25867 061.8895 089.2510 6231642 284.0436 356.9289 00.37802854 2262 ____________________________________________________________________ These 2-Line ...Continue Reading
  • This mailing list is a public mailing list - anyone may join or leave, at any time.
  • This mailing list is announce-only.

International Space Station (ISS) / Hubble Space Telescope (HST) / Chandra X-Ray Observatory Orbital Data via EMAIL

Privacy Policy:

Private list